Weather History for KHRO - June, 2013

Change the Weather History Date:

Thursday, June 27, 2013

  Actual Average Record
Temperature  
Mean Temperature 89 °F 76 °F  
Max Temperature 100 °F 87 °F 102 °F (1936)
Min Temperature 77 °F 66 °F 47 °F (1901)
Degree Days  
Heating Degree Days 0 0  
Month to date heating degree days 5 3  
Since 1 June heating degree days 5 3  
Since 1 July heating degree days 3962 4001  
Cooling Degree Days 24 11  
Month to date cooling degree days 272 231  
Year to date cooling degree days 418 370  
Since 1 June cooling degree days 272 231  
Growing Degree Days 38 (Base 50)    
Moisture  
Dew Point 71 °F    
Average Humidity 60    
Maximum Humidity 82    
Minimum Humidity 38    
Precipitation  
Precipitation 0.00 in 0.12 in 1.28 in (1937)
Month to date precipitation 0.96 3.86  
Year to date precipitation 19.08 21.86  
Snow  
Snow 0.00 in 0.00 in - ()
Month to date snowfall 0.0 0.0  
Since 1 June snowfall 0.0 0.0  
Since 1 July snowfall 4.7 11.5  
Snow Depth 0.00 in    
Sea Level Pressure  
Sea Level Pressure 29.91 in    
Wind  
Wind Speed 6 mph (West)    
Max Wind Speed 12 mph    
Max Gust Speed 16 mph    
Visibility 10 miles    
Events      
T = Trace of Precipitation, MM = Missing Value Source: NWS Daily Summary

Daily Weather History Graph

Daily Weather History Graph

Search for Another Location

Airport or City:

Trip Planner

Search our weather history database for the weather conditions in past years. The results will help you decide how hot, cold, wet, or windy it might be!

Date:

Astronomy

Jun. 27, 2013 Rise Set
Actual Time 5:57 AM CDT 8:34 PM CDT
Civil Twilight 5:26 AM CDT 9:04 PM CDT
Nautical Twilight 4:49 AM CDT 9:42 PM CDT
Astronomical Twilight 4:07 AM CDT 10:24 PM CDT
Moon 11:41 PM CDT (6/27) 10:49 AM CDT (6/27)
Length of Visible Light 15h 37m
Length of Day
14h 36m
Waning Gibbous, 76% of the Moon is Illuminated
Jun 27
Waning Gibbous
Jun 29
Last Quarter
Jul 8
New
Jul 15
First Quarter
Jul 22
Full

Hourly Weather History & Observations

Time (CDT) Temp. Heat Index Dew Point Humidity Pressure Visibility Wind Dir Wind Speed Gust Speed Precip Events Conditions
12:53 AM 79.0 °F - 72.0 °F 79% 29.90 in 10.0 mi West 6.9 mph - N/A   Clear
1:53 AM 79.0 °F - 72.0 °F 79% 29.90 in 10.0 mi West 4.6 mph - N/A   Clear
2:53 AM 79.0 °F - 72.0 °F 79% 29.90 in 10.0 mi West 6.9 mph - N/A   Clear
3:53 AM 78.1 °F - 71.1 °F 79% 29.92 in 10.0 mi WNW 6.9 mph - N/A   Clear
4:53 AM 77.0 °F - 71.1 °F 82% 29.93 in 10.0 mi West 5.8 mph - N/A   Clear
5:53 AM 77.0 °F - 70.0 °F 79% 29.94 in 10.0 mi West 4.6 mph - N/A   Clear
6:53 AM 78.1 °F - 70.0 °F 76% 29.93 in 10.0 mi West 5.8 mph - N/A   Clear
7:53 AM 82.0 °F 85.9 °F 70.0 °F 67% 29.94 in 10.0 mi West 5.8 mph - N/A   Clear
8:53 AM 84.9 °F 89.4 °F 70.0 °F 61% 29.95 in 10.0 mi West 4.6 mph - N/A   Clear
9:53 AM 89.1 °F 96.0 °F 72.0 °F 57% 29.95 in 10.0 mi West 9.2 mph - N/A   Clear
10:53 AM 91.0 °F 98.2 °F 72.0 °F 53% 29.95 in 10.0 mi NW 11.5 mph 16.1 mph N/A   Clear
11:53 AM 93.0 °F 100.7 °F 72.0 °F 50% 29.96 in 10.0 mi NW 9.2 mph - N/A   Clear
12:53 PM 95.0 °F 102.5 °F 71.1 °F 46% 29.94 in 10.0 mi WNW 10.4 mph - N/A   Clear
1:53 PM 97.0 °F 104.8 °F 71.1 °F 43% 29.93 in 10.0 mi NW 5.8 mph - N/A   Clear
2:53 PM 98.1 °F 105.0 °F 70.0 °F 40% 29.91 in 10.0 mi West 8.1 mph - N/A   Clear
3:53 PM 98.1 °F 103.0 °F 68.0 °F 37% 29.90 in 10.0 mi WNW 8.1 mph - N/A   Clear
4:53 PM 98.1 °F 103.0 °F 68.0 °F 37% 29.89 in 10.0 mi NW 4.6 mph - N/A   Clear
5:53 PM 97.0 °F 100.4 °F 66.0 °F 36% 29.87 in 10.0 mi NNW 3.5 mph - N/A   Clear
6:53 PM 93.9 °F 100.8 °F 71.1 °F 47% 29.85 in 10.0 mi WSW 4.6 mph - N/A   Clear
7:53 PM 87.1 °F 96.3 °F 75.0 °F 67% 29.86 in 10.0 mi Calm Calm - N/A   Clear
8:53 PM 89.1 °F 95.0 °F 71.1 °F 55% 29.86 in 10.0 mi SE 6.9 mph - N/A   Scattered Clouds
9:53 PM 86.0 °F 91.5 °F 71.1 °F 61% 29.87 in 10.0 mi Calm Calm - N/A   Clear
10:53 PM 84.9 °F 90.7 °F 72.0 °F 65% 29.87 in 10.0 mi West 3.5 mph - N/A   Clear
11:53 PM 84.0 °F 89.0 °F 71.1 °F 65% 29.88 in 10.0 mi WSW 6.9 mph - N/A   Clear